Probability
0 0 0 0 0 0 0 0 0 0 0 0 0 0 0 0 0 0 0 0 0 0 0 0 0 0 0 0 0 0 0 0 0 0 0 0 0 0 0 0 0 0 0
0 0 0 0 0 0 0 0 0 0 0 0 0 0 0 0 0 0 0 0 0 0 0 0 0 0 0 0 0 0 0 0 0 0 0 0 0 0 0 0 0 0 0
0 0 0 0 0 0 0 0 0 0 0 0 0 0 0 0 0 0 0 0 0 0 0 0 0 0 0 0 0 0 0 0 0 0 0 0 0 0 0 0 0 0 0
0 0 0 0 0 0 0 0 0 0 0 0 0 0 0 0 0 0 0 0 0 0 0 0 0 0 0 0 0 0 0 0 0 0 0 0 0 0 0 0 0 0 0
0 0 0 0 0 0 0 0 0 0 0 0 0 0 0 0 0 0 0 0 0 0 0 0 0 0 0 0 0 0 0 0 0 0 0 0 0 0 0 0 0 0 0
0 0 0 0 0 0 0 0 0 0 0 0 0 0 0 0 0 0 0 0 0 0 0 0 0 0 0 0 0 0 0 0 0 0 0 0 0 0 0 0 0 0 0
0 0 0 0 0 0 0 0 0 0 0 0 0 0 0 0 0 0 0 0 0 0 0 0 0 0 0 0 0 0 0 0 0 0 0 0 0 0 0 0 0 0 0
0 0 0 0 0 0 0 0 0 0 0 0 0 0 0 0 0 0 0 0 0 0 0 0 0 0 0 0 0 0 0 0 0 0 0 0 0 0 0 0 0 0 0
0 0 0 0 0 0 0 0 0 0 0 0 0 0 0 0 0 0 0 0 0 0 0 0 0 0 0 0 0 0 0 0 0 0 0 0 0 0 0 0 0 0 0
0 0 0 0 0 0 0 0 0 0 0 0 0 0 0 0 0 0 0 0 0 0 0 0 0 0 0 0 0 0 0 0 0 0 0 0 0 0 0 0 0 0 0
0 0 0 0 0 0 0 0 0 0 0 0 0 0 0 0 0 0 0 0 0 0 0 0 0 0 0 0 0 0 0 0 0 0 0 0 0 0 0 0 0 0 0
0 0 0 0 0 0 0 0 0 0 0 0 0 0 0 0 0 0 0 0 0 0 0 0 0 0 0 0 0 0 0 0 0 0 0 0 0 0 0 0 0 0 0
0 0 0 0 0 0 0 0 0 0 0 0 0 0 0 0 0 0 0 0 0 0 0 0 0 0 0 0 0 0 0 0 0 0 0 0 0 0 0 0 0 0 0
0 0 0 0 0 0 0 0 0 0 0 0 0 0 0 0 0 0 0 0 0 0 0 0 0 0 0 0 0 0 0 0 0 0 0 0 0 0 0 0 0 0 0
0 0 0 0 0 0 0 0 0 0 0 0 0 0 0 0 0 0 0 0 0 0 0 0 0 0 0 0 0 0 0 0 0 0 0 0 0 0 0 0 0 0 0
0 0 0 0 0 0 0 0 0 0 0 0 0 0 0 0 0 0 0 0 0 0 0 0 0 0 0 0 0 0 0 0 0 0 0 0 0 0 0 0 0 0 0
0 0 0 0 0 0 0 0 0 0 0 0 0 0 0 0 0 0 0 0 0 0 0 0 0 0 0 0 0 0 0 0 0 0 0 0 0 0 0 0 0 0 0
0 0 0 0 0 0 0 0 0 0 0 0 0 0 0 0 0 0 0 0 0 0 0 0 0 0 0 0 0 0 0 0 0 0 0 0 0 0 0 0 0 0 0
0 0 0 0 0 0 0 0 0 0 0 0 0 0 0 0 0 0 0 0 0 0 0 0 0 0 0 0 0 0 0 0 0 0 0 0 0 0 0 0 0 0 0
0 0 0 0 0 0 0 0 0 0 0 0 0 0 0 0 0 0 0 0 0 0 0 0 0 0 0 0 0 0 0 0 0 0 0 0 0 0 0 0 0 0 0
0 0 0 0 0 0 0 0 0 0 0 0 0 0 0 0 0 0 0 0 0 0 0 0 0 0 0 0 0 0 0 0 0 0 0 0 0 0 0 0 0 0 0
0 0 0 0 0 0 0 0 0 0 0 0 0 0 0 0 0 0 0 0 0 0 0 0 0 0 0 0 0 0 0 0 0 0 0 0 0 0 0 0 0 0 0
0 0 0 0 0 0 0 0 0 0 0 0 0 0 0 0 0 0 0 0 0 0 0 0 0 0 0 0 0 0 0 0 0 0 0 0 0 0 0 0 0 0 0
0 0 0 0 0 0 0 0 0 0 0 0 0 0 0 0 0 0 0 0 0 0 0 0 0 0 0 0 0 0 0 0 0 0 0 0 0 0 0 0 0 0 0
0 0 0 0 0 0 0 0 0 0 0 0 0 0 0 0 0 0 0 0 0 0 0 0 0 0 0 0 0 0 0 0 0 0 0 0 0 0 0 0 0 0 0
0 0 0 0 0 0 0 0 0 0 0 0 0 0 0 0 0 0 0 0 0 0 0 0 0 0 0 0 0 0 0 0 0 0 0 0 0 0 0 0 0 0 0
Height
5707 5707 5708 5709 5710 5711 5712 5713 5715 5716 5717 5718 5719 5720 5720 5721 5721 5723 5724 5726 5729 5731 5733 5735 5737 5739 5741 5743 5745 5747 5748 5750 5751 5752 5754 5755 5756 5756 5758 5758 5759 5760 5761
5697 5698 5698 5699 5700 5701 5702 5703 5704 5706 5707 5708 5709 5710 5710 5711 5712 5713 5714 5716 5718 5721 5723 5725 5727 5729 5731 5733 5735 5737 5738 5740 5741 5742 5744 5745 5747 5747 5748 5749 5750 5751 5752
5687 5688 5688 5689 5689 5690 5691 5693 5694 5695 5696 5697 5699 5699 5700 5701 5702 5703 5704 5706 5708 5710 5712 5715 5717 5719 5721 5723 5725 5727 5728 5730 5731 5731 5733 5734 5736 5737 5738 5738 5739 5740 5741
5676 5677 5678 5678 5679 5680 5681 5682 5683 5685 5686 5687 5688 5689 5690 5691 5691 5692 5694 5695 5697 5700 5702 5704 5706 5708 5711 5713 5714 5716 5718 5719 5720 5721 5722 5724 5725 5726 5728 5729 5729 5729 5730
5666 5666 5667 5668 5668 5669 5670 5671 5672 5673 5674 5676 5677 5678 5679 5680 5680 5681 5683 5684 5686 5688 5690 5693 5695 5697 5699 5701 5703 5705 5706 5707 5709 5710 5711 5712 5713 5714 5716 5718 5718 5718 5718
5656 5655 5656 5656 5657 5657 5658 5659 5660 5662 5663 5664 5665 5666 5667 5668 5669 5670 5672 5673 5675 5677 5679 5681 5683 5685 5687 5689 5691 5693 5694 5695 5697 5698 5699 5700 5701 5702 5703 5704 5705 5706 5706
5645 5645 5644 5645 5645 5646 5646 5648 5649 5650 5651 5652 5653 5654 5655 5656 5657 5658 5659 5661 5663 5665 5667 5669 5671 5673 5675 5677 5679 5681 5682 5683 5684 5686 5686 5687 5688 5689 5690 5691 5692 5693 5693
5635 5634 5633 5633 5634 5634 5635 5636 5637 5638 5639 5640 5641 5642 5643 5644 5645 5646 5647 5649 5650 5652 5654 5656 5659 5661 5663 5664 5666 5668 5669 5670 5671 5673 5674 5675 5676 5676 5677 5677 5678 5679 5680
5624 5623 5622 5622 5622 5622 5623 5623 5624 5625 5626 5627 5628 5629 5630 5631 5632 5633 5634 5636 5637 5639 5641 5643 5645 5647 5649 5651 5652 5654 5655 5657 5658 5659 5660 5661 5662 5663 5663 5663 5664 5664 5665
5613 5612 5611 5611 5610 5610 5610 5611 5611 5612 5613 5614 5615 5616 5617 5618 5619 5621 5622 5623 5624 5626 5628 5630 5632 5634 5636 5637 5639 5641 5642 5643 5644 5645 5647 5648 5648 5649 5649 5649 5649 5649 5649
5602 5601 5600 5600 5599 5599 5599 5599 5599 5599 5600 5601 5602 5603 5604 5605 5607 5608 5609 5610 5612 5613 5614 5616 5618 5620 5622 5624 5625 5627 5628 5629 5630 5632 5633 5634 5634 5634 5634 5634 5634 5634 5634
5591 5590 5589 5588 5588 5587 5587 5587 5587 5588 5588 5589 5590 5591 5592 5593 5594 5595 5597 5598 5599 5600 5601 5603 5604 5606 5608 5609 5611 5613 5614 5615 5616 5617 5618 5619 5620 5620 5620 5620 5620 5620 5620
5580 5579 5578 5577 5577 5576 5576 5576 5576 5576 5577 5578 5578 5579 5580 5581 5582 5583 5584 5585 5586 5587 5588 5590 5591 5593 5594 5596 5597 5598 5599 5600 5602 5602 5603 5604 5605 5605 5605 5605 5605 5605 5605
5570 5569 5568 5567 5566 5566 5565 5565 5565 5565 5565 5566 5567 5567 5568 5569 5570 5571 5571 5572 5573 5574 5575 5576 5578 5579 5580 5582 5583 5584 5585 5586 5587 5588 5589 5589 5590 5590 5590 5590 5590 5590 5590
5560 5559 5558 5557 5556 5555 5555 5554 5554 5554 5554 5554 5555 5555 5556 5557 5557 5558 5559 5559 5560 5561 5562 5563 5564 5565 5566 5567 5568 5570 5571 5572 5572 5573 5574 5574 5574 5575 5575 5575 5575 5575 5575
5550 5549 5548 5546 5545 5545 5544 5544 5543 5543 5543 5543 5543 5543 5544 5544 5545 5545 5546 5546 5547 5548 5548 5549 5550 5550 5551 5553 5554 5555 5556 5557 5558 5559 5559 5559 5559 5559 5560 5560 5560 5560 5560
5540 5538 5537 5536 5535 5534 5533 5533 5532 5531 5531 5531 5531 5531 5532 5532 5532 5532 5533 5533 5534 5534 5534 5535 5535 5536 5537 5537 5539 5540 5541 5542 5543 5544 5544 5544 5544 5544 5544 5544 5544 5544 5544
5529 5527 5526 5524 5523 5522 5522 5521 5521 5520 5519 5519 5519 5519 5519 5519 5519 5519 5520 5520 5520 5520 5520 5520 5521 5522 5522 5523 5524 5525 5526 5528 5528 5529 5529 5530 5529 5529 5529 5529 5529 5528 5528
5518 5516 5514 5513 5511 5510 5510 5509 5508 5508 5507 5507 5506 5506 5507 5507 5507 5507 5507 5507 5506 5506 5506 5506 5507 5507 5508 5508 5509 5510 5511 5512 5513 5514 5514 5514 5514 5514 5514 5514 5513 5513 5513
5506 5504 5503 5501 5500 5498 5497 5496 5496 5495 5494 5494 5493 5493 5493 5494 5494 5493 5493 5493 5493 5492 5492 5492 5492 5493 5493 5494 5494 5495 5496 5497 5498 5499 5499 5499 5499 5498 5497 5497 5497 5497 5497
5495 5493 5491 5489 5488 5486 5485 5484 5483 5482 5481 5481 5480 5480 5480 5480 5480 5480 5480 5479 5479 5479 5479 5478 5479 5479 5479 5480 5480 5480 5481 5481 5482 5482 5483 5483 5482 5482 5481 5481 5481 5481 5480
5484 5481 5480 5478 5476 5474 5473 5472 5471 5470 5468 5468 5467 5467 5467 5467 5467 5466 5466 5466 5465 5465 5465 5465 5464 5465 5465 5465 5465 5465 5466 5466 5467 5467 5467 5467 5466 5466 5465 5465 5465 5464 5463
5472 5470 5468 5467 5465 5463 5461 5460 5458 5457 5456 5455 5454 5454 5454 5454 5453 5453 5452 5452 5452 5452 5451 5451 5451 5451 5451 5451 5451 5451 5451 5451 5451 5451 5451 5451 5451 5450 5449 5449 5448 5448 5447
5461 5459 5457 5455 5453 5451 5449 5447 5446 5444 5443 5442 5441 5441 5441 5441 5440 5440 5439 5439 5438 5438 5438 5437 5437 5437 5437 5437 5437 5436 5436 5436 5436 5436 5436 5435 5434 5434 5433 5433 5432 5432 5432
5449 5447 5445 5443 5440 5438 5436 5434 5433 5431 5430 5430 5429 5429 5429 5428 5428 5427 5426 5426 5425 5425 5424 5424 5424 5424 5424 5423 5422 5422 5422 5421 5421 5420 5419 5419 5419 5418 5418 5417 5417 5417 5417
5437 5435 5432 5430 5428 5426 5424 5422 5420 5419 5418 5417 5417 5416 5416 5416 5415 5414 5413 5412 5412 5411 5411 5410 5410 5409 5409 5408 5408 5407 5406 5406 5405 5404 5404 5403 5403 5402 5402 5402 5402 5402 5402
Wind_Speed
35 36 36 36 37 38 39 39 40 40 40 40 39 40 40 40 41 41 41 42 42 42 42 42 42 41 41 40 40 40 39 39 40 40 40 39 39 39 39 39 39 39 39
36 36 37 37 37 38 39 39 40 40 40 40 40 40 40 41 41 42 42 43 43 43 42 42 42 42 42 41 41 41 41 41 41 41 41 41 41 41 41 41 41 41 41
37 37 37 37 38 39 39 40 40 40 41 41 41 41 40 42 43 43 43 44 45 45 44 43 43 44 43 43 42 41 41 42 42 42 43 43 42 42 42 43 43 43 43
38 38 38 38 38 39 40 40 41 41 41 42 42 42 42 42 43 43 44 45 46 46 47 46 46 46 46 45 44 43 43 42 42 43 44 44 45 45 45 45 45 45 45
37 38 38 38 38 39 40 41 42 43 43 43 43 43 44 43 43 44 45 46 46 47 48 48 48 48 47 47 47 46 45 45 45 45 46 46 46 47 47 46 46 46 47
37 38 39 39 39 39 40 42 42 43 44 44 44 44 44 44 45 46 47 47 47 47 48 49 49 49 49 48 48 49 48 47 48 48 48 48 48 48 49 49 49 48 48
36 37 38 39 40 40 42 43 43 43 44 46 46 45 45 46 46 47 48 48 49 48 48 49 50 50 50 49 49 50 50 50 49 49 48 49 49 49 50 50 50 50 51
35 36 37 39 40 41 42 43 44 44 45 46 47 47 48 48 47 48 49 50 49 50 50 50 51 51 51 51 51 51 51 52 52 51 50 51 51 51 51 52 52 53 52
36 36 37 39 40 41 41 42 44 45 46 46 47 48 49 49 48 48 48 50 51 51 52 52 51 52 52 53 53 52 52 53 53 52 52 52 52 53 53 53 53 54 53
35 36 37 38 39 41 41 42 43 45 46 46 46 47 48 49 49 48 49 49 51 52 52 53 54 53 53 53 53 53 52 52 52 52 52 53 53 54 54 54 54 54 54
35 36 37 38 39 40 40 41 42 43 44 44 45 45 46 46 47 48 48 49 50 52 53 54 54 54 54 54 54 53 53 53 53 53 53 54 55 55 55 54 54 54 54
35 35 36 37 38 39 39 40 40 41 43 43 44 44 45 45 45 46 47 48 49 51 52 53 52 52 53 54 54 55 54 54 53 53 54 55 55 55 55 55 55 55 55
35 35 36 36 37 37 38 38 38 39 41 42 43 44 44 45 45 45 46 47 48 49 50 51 52 53 53 53 53 53 54 54 54 54 53 54 54 55 55 55 55 55 55
34 34 34 34 35 36 36 36 37 38 39 41 42 43 44 45 45 45 46 47 48 48 49 50 51 53 53 53 52 51 52 52 52 53 54 55 55 56 56 56 56 56 56
34 34 33 33 34 35 35 35 36 37 38 39 41 42 44 45 45 46 47 47 48 48 49 50 51 52 53 54 53 52 52 51 52 53 54 55 55 56 56 56 56 56 56
35 34 34 34 34 35 35 36 37 37 38 39 40 41 42 43 44 45 46 47 48 49 49 50 50 52 52 53 53 53 53 52 52 53 53 53 54 55 56 56 56 56 56
36 36 36 36 36 37 37 37 38 39 39 40 40 41 42 43 44 45 45 46 47 48 49 49 50 50 51 52 53 53 53 53 53 53 52 51 51 52 53 54 56 57 56
38 37 37 37 37 37 38 38 38 39 39 40 41 42 42 43 44 44 45 46 46 47 48 49 50 50 51 51 52 53 53 53 53 53 53 52 51 52 53 54 55 56 56
38 38 38 39 38 38 38 39 38 39 40 40 42 43 43 43 43 44 44 45 46 47 48 49 49 50 50 50 51 53 54 53 54 54 54 54 54 53 54 54 54 55 55
38 38 38 38 38 38 39 39 39 39 40 40 41 42 43 43 44 44 44 45 46 46 47 48 49 49 49 50 51 52 53 53 54 54 54 54 54 53 53 54 54 54 54
36 37 37 37 37 37 38 39 40 40 41 41 41 42 43 43 43 44 44 45 45 46 47 48 49 49 49 50 50 51 51 52 52 52 53 53 53 54 54 54 54 54 54
36 36 36 36 37 37 38 38 39 40 41 41 41 42 42 43 43 43 44 44 45 45 46 47 48 48 48 48 49 49 49 49 50 51 51 52 53 53 54 54 54 54 53
36 36 36 36 36 37 37 38 39 39 40 40 40 40 41 42 42 42 43 44 44 45 45 45 46 46 47 47 47 47 47 48 49 50 51 51 52 53 53 53 53 52 52
37 37 37 37 37 37 38 39 39 39 39 39 39 39 40 40 41 41 42 42 43 43 43 43 43 44 45 46 46 47 47 48 49 50 51 52 52 52 52 52 52 51 50
37 37 37 37 38 38 38 39 39 39 39 39 39 39 40 40 40 40 40 41 41 41 41 41 42 43 44 45 46 46 47 48 49 50 51 51 51 51 51 50 50 50 50
36 36 36 37 37 37 37 37 37 38 38 38 38 38 38 38 38 39 39 39 39 40 40 41 41 42 44 45 46 46 46 47 49 50 50 50 50 50 49 49 48 48 48
Wind_Direction
259 259 258 258 256 254 253 252 252 251 252 252 253 254 253 252 251 250 250 250 250 249 249 250 251 251 252 252 252 254 255 256 256 256 256 256 256 257 257 258 259 259 259
259 259 259 258 257 256 255 254 253 252 252 253 254 254 254 253 252 251 250 249 249 249 250 250 251 251 252 253 254 255 256 256 256 255 255 256 257 257 259 259 260 260 261
261 260 260 259 258 257 255 254 254 254 253 253 254 254 254 254 253 252 251 250 249 250 251 250 250 251 252 253 255 255 256 257 257 256 256 257 257 258 259 260 261 262 263
263 261 260 259 259 258 257 255 255 254 254 253 254 254 254 254 253 253 252 251 252 251 252 251 251 251 251 252 254 255 257 258 258 257 257 258 258 258 259 260 262 263 263
264 262 260 259 259 259 258 256 256 255 255 255 255 256 256 256 254 253 254 254 253 253 252 252 252 252 251 251 253 255 256 256 257 258 258 258 259 259 260 260 262 262 262
266 265 261 259 259 258 258 257 257 256 256 256 256 256 258 257 256 255 255 255 254 254 253 252 252 252 252 253 254 255 256 256 257 258 259 259 260 260 261 260 261 262 262
268 266 263 260 259 259 258 258 258 257 257 256 256 257 257 257 257 256 255 255 254 253 254 252 252 252 252 253 255 256 256 257 258 259 260 260 260 261 262 262 262 263 264
270 268 266 264 262 262 260 259 258 258 258 257 257 258 257 257 258 257 256 255 254 254 253 253 253 252 253 254 255 255 256 257 259 260 261 261 261 262 263 263 264 264 264
272 270 269 267 265 264 263 261 259 258 258 258 258 258 257 258 259 258 257 255 254 254 253 253 253 253 253 254 255 255 256 258 259 260 261 262 262 262 263 263 264 264 264
275 272 271 269 267 266 265 263 261 260 258 258 258 258 257 257 258 259 259 257 255 255 254 254 254 254 254 255 256 256 256 257 258 260 262 262 262 264 263 264 264 264 265
279 274 271 269 268 266 266 264 262 260 258 257 257 258 258 257 257 258 259 259 258 257 256 255 255 255 255 256 257 257 256 257 258 261 261 261 261 263 263 264 265 264 265
280 276 273 271 269 268 266 265 263 262 260 258 258 258 259 259 259 259 259 259 259 259 258 257 256 256 257 257 258 258 258 258 259 261 261 261 261 262 264 265 265 265 265
280 277 274 272 270 269 268 267 265 263 261 260 260 260 260 260 260 260 261 260 260 260 260 259 258 257 257 258 259 260 260 261 261 261 261 261 260 262 263 264 265 265 264
280 278 276 274 272 270 269 268 268 266 263 262 261 261 261 261 261 261 261 261 261 261 261 260 260 259 258 258 259 260 260 261 261 261 262 262 261 262 262 263 264 264 263
282 279 277 275 273 271 270 269 268 267 266 264 263 263 262 261 261 262 262 262 263 263 262 261 261 260 260 259 260 260 260 260 262 263 263 263 263 263 263 264 264 264 264
281 279 277 276 274 272 271 270 270 269 267 265 264 263 263 263 262 262 262 263 264 264 263 262 262 261 260 259 259 260 260 261 262 263 264 264 264 264 264 264 265 265 265
281 279 278 277 275 273 272 271 270 270 269 266 265 263 263 264 263 263 263 263 264 264 264 263 263 262 261 260 260 260 261 262 262 263 264 264 265 264 265 266 266 267 266
279 279 278 278 276 274 272 271 271 271 270 268 265 264 264 264 264 264 263 263 263 264 264 264 263 263 262 261 261 261 261 262 262 263 264 265 266 267 267 267 267 267 267
279 279 278 277 276 275 273 272 271 271 271 270 267 265 265 266 266 266 266 266 266 266 266 265 264 263 263 263 262 262 262 262 262 263 264 265 266 267 268 268 267 267 267
279 278 278 278 277 275 273 272 272 272 272 271 269 267 266 266 266 266 266 267 267 267 267 266 264 263 263 264 264 264 263 263 263 264 265 265 266 266 267 268 268 268 268
281 280 279 278 277 276 274 273 272 272 272 271 269 268 266 266 266 266 267 268 268 268 268 267 265 264 264 265 265 265 264 264 264 264 265 265 266 266 267 267 267 268 268
281 280 280 279 278 277 276 275 274 273 272 271 269 268 268 268 268 267 268 268 268 268 268 267 266 265 265 265 265 265 265 264 264 264 264 265 265 266 267 268 268 268 267
280 280 280 280 278 277 277 276 275 275 273 272 270 268 269 269 269 269 269 270 269 269 268 267 266 266 266 266 265 265 265 265 265 265 265 266 266 267 267 267 267 267 266
281 280 280 280 279 278 278 276 275 275 275 273 271 269 269 270 270 270 271 271 270 270 269 268 267 267 267 267 267 267 268 268 268 268 267 267 267 267 267 267 266 266 265
283 282 281 280 280 279 278 277 275 274 274 273 271 270 270 271 271 271 271 271 270 269 269 269 269 268 268 269 269 269 269 269 269 269 269 268 268 267 266 266 266 265 265
284 283 282 281 281 279 278 277 275 274 274 272 271 270 270 271 272 273 272 272 271 270 270 270 270 270 270 269 269 270 270 271 271 271 270 269 268 267 267 267 266 265 265